Location: Marysville Observatory
(48.1092°N, 122.1645°W)
Time: 22:30:55
(UTC-07:00)

Amateur Radio Satellites - All Passes

Search period start: 25 September 2017 22:00
Search period end: 26 September 2017 22:00
Location: Marysville Observatory, 48.1092°N, 122.1645°W

Satellite Date Start Highest point End Downlink Frequencies (MHz)
Time Altitude Azimuth
TIGRISAT 25 Sep 22:02:03 22:05:08 17° 90° (E) 22:08:13 435.000
nSIGHT-1 25 Sep 22:10:12 22:13:25 66° 342° (NNW) 22:16:40 .
EO-88 25 Sep 22:13:21 22:17:01 88° 256° (WSW) 22:20:44 145.990 - 145.960
STRAND 1 25 Sep 22:14:38 22:18:34 23° 300° (WNW) 22:22:30 437.568
DELFI C3 25 Sep 22:20:31 22:24:16 42° 261° (W) 22:28:03 145.870
ESTCUBE 1 25 Sep 22:23:10 22:26:09 18° 60° (ENE) 22:29:08 437.505/2401.250
SO-50 25 Sep 22:24:15 22:28:52 88° 231° (SW) 22:33:30 436.795
BEESAT 3 25 Sep 22:28:08 22:29:50 12° 336° (NNW) 22:31:34 437.485
PCSat 25 Sep 22:29:29 22:34:31 37° 44° (NE) 22:39:32 145.827
YUBILEINY 25 Sep 22:37:04 22:45:07 39° 67° (ENE) 22:53:08 435.215
BEESAT 2 25 Sep 22:39:45 22:42:36 18° 328° (NNW) 22:45:27 435.950
AO-85 25 Sep 22:44:38 22:47:17 17° 330° (NNW) 22:49:59 145.980
Max Valier Satellite 25 Sep 22:52:51 22:55:56 24° 266° (W) 22:59:02 145.860
LO-87 25 Sep 23:01:34 23:04:57 44° 72° (ENE) 23:08:22 145.935 - 145.965
ISS 25 Sep 23:12:17 23:15:28 45° 354° (N) 23:18:39 437.550
UNISAT 6 25 Sep 23:14:33 23:19:16 86° 102° (ESE) 23:23:59 437.425
Tancredo 1 25 Sep 23:14:35 23:17:11 46° 12° (NNE) 23:19:48 437.200
PRISM 25 Sep 23:25:17 23:29:17 57° 101° (E) 23:33:17 437.425
FO-29 25 Sep 23:27:27 23:32:30 39° 294° (WNW) 23:38:01 435.910
TIGRISAT 25 Sep 23:37:35 23:42:14 64° 287° (WNW) 23:46:53 435.000
nSIGHT-1 25 Sep 23:46:55 23:50:02 42° 2° (N) 23:53:10 .
QB50P2 25 Sep 23:51:47 23:53:50 13° 88° (E) 23:55:52 145.880/145.840
SPROUT 25 Sep 23:55:10 23:58:57 33° 68° (ENE) 00:02:47 437.525
ESTCUBE 1 25 Sep 23:57:58 00:02:29 65° 259° (W) 00:07:01 437.505/2401.250
SO-50 26 Sep 00:06:28 00:08:39 13° 250° (WSW) 00:10:50 436.795
AIST 2D 26 Sep 00:07:04 00:10:24 38° 98° (E) 00:13:40 435.315
PCSat 26 Sep 00:12:53 00:18:03 46° 244° (WSW) 00:23:11 145.827
VELOX 1 26 Sep 00:15:40 00:19:47 41° 69° (ENE) 00:23:55 145.980
NANOSAT C BR1 26 Sep 00:23:28 00:26:50 22° 93° (E) 00:30:11 145.865
YUBILEINY 26 Sep 00:33:50 00:42:17 57° 270° (W) 00:50:45 435.215
LO-87 26 Sep 00:36:40 00:38:37 14° 269° (W) 00:40:35 145.935 - 145.965
ISS 26 Sep 00:49:01 00:52:16 56° 14° (NNE) 00:55:31 437.550
Tancredo 1 26 Sep 00:49:04 00:51:36 39° 211° (SSW) 00:54:08 437.200
DUCHIFAT 1 26 Sep 00:50:01 00:53:57 36° 97° (E) 00:57:53 145.980
UNISAT 6 26 Sep 00:52:47 00:55:19 15° 302° (WNW) 00:57:54 437.425
PRISM 26 Sep 01:01:36 01:04:10 16° 299° (WNW) 01:06:42 437.425
UKube-1 26 Sep 01:04:03 01:07:36 26° 64° (ENE) 01:11:09 .
POLYITAN 1 26 Sep 01:07:40 01:11:58 69° 102° (ESE) 01:16:14 437.675
EO-79 26 Sep 01:11:10 01:15:28 75° 102° (ESE) 01:19:45 145.935-145.965
BUGSAT 1 26 Sep 01:15:13 01:18:19 19° 92° (E) 01:21:24 437.445
DX 1 26 Sep 01:15:52 01:20:02 48° 70° (ENE) 01:24:13 434.975-435.025
TIGRISAT 26 Sep 01:17:32 01:18:00 10° 306° (NW) 01:18:29 435.000
nSIGHT-1 26 Sep 01:23:20 01:26:36 83° 22° (NNE) 01:29:52 .
QB50P2 26 Sep 01:25:49 01:30:07 72° 285° (WNW) 01:34:22 145.880/145.840
50 SAT 26 Sep 01:26:19 01:29:36 76° 76° (ENE) 01:32:56 437.505
Oscar 19 26 Sep 01:26:40 01:29:29 15° 88° (E) 01:32:18 437.125/150
SPROUT 26 Sep 01:31:16 01:34:53 27° 265° (W) 01:38:33 437.525
Gurwin Techsat 1B 26 Sep 01:33:44 01:35:37 12° 85° (E) 01:37:29 435.225
AIST 2D 26 Sep 01:40:57 01:43:18 17° 296° (WNW) 01:45:39 435.315
BEESAT 3 26 Sep 01:46:54 01:48:41 12° 24° (NNE) 01:50:27 437.485
VELOX 1 26 Sep 01:52:53 01:56:24 23° 267° (W) 01:59:55 145.980
NANOSAT C BR1 26 Sep 01:58:41 02:02:42 41° 291° (WNW) 02:06:42 145.865
O/OREOS (USA 219) 26 Sep 02:07:50 02:11:59 37° 107° (ESE) 02:16:10 437.305
AO-85 26 Sep 02:10:21 02:11:50 12° 21° (NNE) 02:13:22 145.980
M-CUBED/EXP-1 PRIME 26 Sep 02:20:59 02:24:19 78° 108° (ESE) 02:27:34 437.505
ITUPSAT 1 26 Sep 02:22:12 02:25:59 24° 61° (ENE) 02:29:49 437.325
ISS 26 Sep 02:25:35 02:28:43 41° 213° (SSW) 02:31:50 437.550
DUCHIFAT 1 26 Sep 02:25:57 02:29:29 26° 295° (WNW) 02:33:01 145.980
YUBILEINY 26 Sep 02:34:24 02:37:01 12° 292° (WNW) 02:39:38 435.215
UKube-1 26 Sep 02:39:28 02:43:28 37° 262° (W) 02:47:30 .
POLYITAN 1 26 Sep 02:44:42 02:47:15 16° 300° (WNW) 02:49:46 437.675
EO-79 26 Sep 02:48:22 02:50:41 14° 301° (WNW) 02:52:58 145.935-145.965
BUGSAT 1 26 Sep 02:49:51 02:53:53 46° 290° (WNW) 02:57:57 437.445
DX 1 26 Sep 02:53:19 02:56:28 19° 268° (W) 02:59:38 434.975-435.025
BEESAT 26 Sep 02:56:02 03:00:35 46° 68° (ENE) 03:05:10 436.000
nSIGHT-1 26 Sep 03:00:06 03:02:38 21° 220° (SW) 03:05:09 .
MOZHAYETS 4 26 Sep 03:03:15 03:07:44 50° 70° (ENE) 03:12:14
Oscar 19 26 Sep 03:04:18 03:09:30 84° 285° (WNW) 03:14:38 437.125/150
Gurwin Techsat 1B 26 Sep 03:11:05 03:16:26 79° 104° (ESE) 03:21:46 435.225
BEESAT 3 26 Sep 03:23:18 03:27:13 47° 46° (NE) 03:31:02 437.485
AO-7 26 Sep 03:31:29 03:37:58 25° 91° (E) 03:44:25 .
BEESAT 2 26 Sep 03:37:16 03:40:47 27° 39° (NE) 03:44:17 435.950
CUBESAT XI-V 26 Sep 03:37:35 03:41:33 28° 65° (ENE) 03:45:31 437.345
O/OREOS (USA 219) 26 Sep 03:47:27 03:51:27 30° 307° (NW) 03:55:30 437.305
AO-85 26 Sep 03:49:23 03:53:24 36° 43° (NE) 03:57:42 145.980
ITUPSAT 1 26 Sep 03:58:53 04:03:31 50° 260° (W) 04:08:12 437.325
RS-15 26 Sep 04:07:00 04:16:41 29° 102° (ESE) 04:26:22 29.354- 29.394
ITAMSAT 1 26 Sep 04:15:19 04:20:03 34° 96° (E) 04:24:46 435.822/435.867
BEESAT 26 Sep 04:34:43 04:38:34 24° 267° (W) 04:42:27 436.000
KKS-1 26 Sep 04:39:56 04:44:03 40° 68° (ENE) 04:48:12 437.445
MOZHAYETS 4 26 Sep 04:41:40 04:45:10 21° 269° (W) 04:48:41
Oscar 19 26 Sep 04:45:12 04:48:02 15° 306° (NW) 04:50:51 437.125/150
Gurwin Techsat 1B 26 Sep 04:52:10 04:55:47 19° 303° (WNW) 04:59:23 435.225
STARS 26 Sep 04:56:43 05:00:21 26° 64° (ENE) 05:04:00 437.465
BEESAT 3 26 Sep 05:01:24 05:04:30 22° 245° (WSW) 05:07:32 437.485
CUBESAT XI-V 26 Sep 05:14:21 05:18:45 40° 263° (W) 05:23:11 437.345
BEESAT 2 26 Sep 05:14:49 05:18:43 46° 239° (WSW) 05:22:33 435.950
AO-7 26 Sep 05:23:21 05:31:41 84° 292° (WNW) 05:39:59 .
AO-85 26 Sep 05:29:45 05:33:50 37° 241° (WSW) 05:38:13 145.980
ITAMSAT 1 26 Sep 05:54:46 05:59:33 38° 295° (WNW) 06:04:20 435.822/435.867
RS-15 26 Sep 06:15:15 06:27:37 87° 124° (SE) 06:39:57 29.354- 29.394
LilacSat-2 26 Sep 06:16:26 06:18:45 15° 90° (E) 06:21:03 437.200
STRAND 1 26 Sep 06:16:53 06:20:33 20° 58° (ENE) 06:24:13 437.568
KKS-1 26 Sep 06:17:09 06:20:44 24° 266° (W) 06:24:21 437.445
KAITUO 1B 26 Sep 06:24:02 06:25:44 13° 89° (E) 06:27:26 145.475/437.950
CUTE-I 26 Sep 06:24:34 06:28:18 19° 90° (E) 06:32:00 437.470
STARS 26 Sep 06:32:31 06:36:33 36° 262° (W) 06:40:37 437.465
DOVE 4 26 Sep 06:32:49 06:37:05 77° 103° (ESE) 06:41:32 437.250
XW-2D 26 Sep 06:59:39 07:03:18 43° 98° (E) 07:06:55 145.860 - 145.880
XW-2F 26 Sep 07:09:38 07:13:21 51° 100° (E) 07:17:01 145.980 - 146.000
XW-2B 26 Sep 07:12:02 07:15:49 57° 101° (E) 07:19:32 145.730 - 145.750
AO-7 26 Sep 07:17:04 07:23:24 25° 314° (NW) 07:29:43 .
NUDT-PHONESAT 26 Sep 07:23:01 07:26:43 56° 101° (E) 07:30:21 437.300
HO-68 26 Sep 07:28:10 07:34:15 29° 93° (E) 07:40:18 435.675
XW-2C 26 Sep 07:33:33 07:37:24 79° 285° (WNW) 07:41:10 145.795 - 145.815
CUTE 1.7 + AOD 2 26 Sep 07:38:30 07:42:03 25° 94° (E) 07:45:32 437.475
LilacSat-2 26 Sep 07:49:35 07:53:19 48° 288° (WNW) 07:56:59 437.200
STRAND 1 26 Sep 07:54:09 07:59:14 68° 257° (WSW) 08:04:21 437.568
KAITUO 1B 26 Sep 07:56:24 08:00:06 56° 287° (WNW) 08:03:44 145.475/437.950
FO-29 26 Sep 08:00:04 08:04:09 22° 60° (ENE) 08:08:06 435.910
CUTE-I 26 Sep 08:03:32 08:08:52 70° 288° (WNW) 08:14:10 437.470
DOVE 4 26 Sep 08:12:07 08:14:17 14° 300° (WNW) 08:16:28 437.250
XW-2A 26 Sep 08:24:08 08:27:11 29° 96° (E) 08:30:12 145.665 - 145.685
RS-15 26 Sep 08:29:57 08:41:39 45° 334° (NNW) 08:53:11 29.354- 29.394
XW-2D 26 Sep 08:34:33 08:37:11 18° 296° (WNW) 08:39:48 145.860 - 145.880
CUBEBUG 2 26 Sep 08:38:01 08:42:42 61° 101° (E) 08:47:25 437.445
UWE-3 26 Sep 08:38:44 08:43:07 38° 97° (E) 08:47:28 435.000/436.395/437.385
SEEDS 26 Sep 08:39:47 08:43:58 68° 101° (E) 08:48:07 437.485
UNISAT 6 26 Sep 08:42:14 08:44:50 16° 58° (ENE) 08:47:28 437.425
XW-2F 26 Sep 08:44:46 08:47:05 16° 298° (WNW) 08:49:23 145.980 - 146.000
XW-2B 26 Sep 08:47:27 08:49:33 14° 299° (WNW) 08:51:39 145.730 - 145.750
AAUSAT CUBESAT 2 26 Sep 08:53:21 08:57:18 43° 98° (E) 09:01:12 437.432
NUDT-PHONESAT 26 Sep 08:58:07 09:00:09 14° 298° (WNW) 09:02:10 437.300
TIGRISAT 26 Sep 09:04:04 09:07:27 22° 62° (ENE) 09:10:55 435.000
Oscar 11 26 Sep 09:10:34 09:14:18 27° 94° (E) 09:18:00 .
CUTE 1.7 + AOD 2 26 Sep 09:14:05 09:17:57 35° 292° (WNW) 09:21:47 437.475
AO-73 26 Sep 09:14:44 09:19:07 43° 98° (E) 09:23:26 145.935
HO-68 26 Sep 09:15:22 09:22:30 66° 293° (WNW) 09:29:36 435.675
ZACube-1 26 Sep 09:19:24 09:23:55 53° 99° (E) 09:28:23 437.345
FO-29 26 Sep 09:43:31 09:48:57 59° 258° (WSW) 09:54:06 435.910
CUTE-I 26 Sep 09:45:37 09:47:59 13° 308° (NW) 09:50:21 437.470
DELFI C3 26 Sep 09:54:16 09:56:59 18° 92° (E) 09:59:42 145.870
XW-2A 26 Sep 09:57:08 09:59:45 20° 294° (WNW) 10:02:20 145.665 - 145.685
UWE-3 26 Sep 10:15:24 10:19:25 29° 295° (WNW) 10:23:25 435.000/436.395/437.385
CUBEBUG 2 26 Sep 10:15:31 10:18:54 20° 299° (WNW) 10:22:18 437.445
UNISAT 6 26 Sep 10:16:35 10:20:57 73° 257° (WSW) 10:25:29 437.425
SEEDS 26 Sep 10:16:49 10:19:10 15° 300° (WNW) 10:21:28 437.485
PRISM 26 Sep 10:17:27 10:21:30 66° 74° (ENE) 10:25:33 437.425
Max Valier Satellite 26 Sep 10:18:42 10:21:48 24° 94° (E) 10:24:51 145.860
AAUSAT CUBESAT 2 26 Sep 10:29:25 10:32:29 20° 296° (WNW) 10:35:31 437.432
POLYITAN 1 26 Sep 10:31:21 10:32:22 11° 56° (NE) 10:33:23 437.675
EO-79 26 Sep 10:34:18 10:35:42 11° 57° (ENE) 10:37:06 145.935-145.965
O/OREOS (USA 219) 26 Sep 10:35:08 10:38:39 21° 48° (NE) 10:42:10 437.305
TIGRISAT 26 Sep 10:39:37 10:43:50 47° 261° (W) 10:48:12 435.000
AIST 2D 26 Sep 10:44:40 10:47:38 25° 68° (ENE) 10:50:35 435.315
Oscar 11 26 Sep 10:46:33 10:50:29 34° 293° (WNW) 10:54:23 .
RS-15 26 Sep 10:46:54 10:58:00 36° 8° (N) 11:08:43 29.354- 29.394
QB50P2 26 Sep 10:47:35 10:50:16 17° 60° (ENE) 10:52:58 145.880/145.840
AO-73 26 Sep 10:51:23 10:55:07 25° 296° (WNW) 10:58:49 145.935
ZACube-1 26 Sep 10:56:24 10:59:50 21° 298° (WNW) 11:03:14 437.345
HO-68 26 Sep 11:04:36 11:08:58 17° 314° (NW) 11:13:20 435.675
EO-88 26 Sep 11:11:55 11:15:35 73° 102° (ESE) 11:19:13 145.990 - 145.960
NANOSAT C BR1 26 Sep 11:18:44 11:22:14 26° 65° (ENE) 11:25:46 145.865
DELFI C3 26 Sep 11:28:14 11:31:57 43° 290° (WNW) 11:35:39 145.870
M-CUBED/EXP-1 PRIME 26 Sep 11:36:12 11:39:15 21° 59° (ENE) 11:42:10 437.505
YUBILEINY 26 Sep 11:43:07 11:50:50 38° 84° (E) 11:58:34 435.215
DUCHIFAT 1 26 Sep 11:44:50 11:48:46 41° 69° (ENE) 11:52:45 145.980
ESTCUBE 1 26 Sep 11:47:25 11:50:47 20° 92° (E) 11:54:07 437.505/2401.250
Max Valier Satellite 26 Sep 11:52:21 11:55:38 29° 292° (WNW) 11:58:54 145.860
PRISM 26 Sep 11:55:16 11:57:12 13° 271° (W) 11:59:09 437.425
LO-87 26 Sep 11:58:00 12:01:20 34° 97° (E) 12:04:39 145.935 - 145.965
POLYITAN 1 26 Sep 12:03:10 12:07:24 80° 73° (ENE) 12:11:40 437.675
EO-79 26 Sep 12:06:32 12:10:45 86° 77° (ENE) 12:15:01 145.935-145.965
BUGSAT 1 26 Sep 12:08:19 12:11:26 22° 63° (ENE) 12:14:35 437.445
O/OREOS (USA 219) 26 Sep 12:13:55 12:18:29 62° 248° (WSW) 12:23:01 437.305
AIST 2D 26 Sep 12:17:45 12:20:45 25° 265° (W) 12:23:46 435.315
QB50P2 26 Sep 12:21:26 12:25:36 61° 259° (W) 12:29:50 145.880/145.840
NO-84 26 Sep 12:43:06 12:46:46 39° 139° (SE) 12:50:09 435.350 FM
SO-50 26 Sep 12:44:50 12:46:22 12° 108° (ESE) 12:47:54 436.795
Oscar 19 26 Sep 12:46:12 12:50:46 32° 64° (ENE) 12:55:20 437.125/150
AO-7 26 Sep 12:46:39 12:50:59 15° 35° (NE) 12:55:19 .
EO-88 26 Sep 12:47:35 12:48:41 11° 300° (WNW) 12:49:48 145.990 - 145.960
NANOSAT C BR1 26 Sep 12:53:58 12:57:49 34° 263° (W) 13:01:42 145.865
Gurwin Techsat 1B 26 Sep 12:57:03 13:01:32 29° 62° (ENE) 13:06:02 435.225
RS-15 26 Sep 13:01:26 13:13:30 61° 40° (NE) 13:24:54 29.354- 29.394
M-CUBED/EXP-1 PRIME 26 Sep 13:09:32 13:13:30 43° 255° (WSW) 13:17:12 437.505
SPROUT 26 Sep 13:12:24 13:16:26 38° 98° (E) 13:20:26 437.525
PCSat 26 Sep 13:17:48 13:20:14 13° 103° (ESE) 13:22:41 145.827
DUCHIFAT 1 26 Sep 13:21:22 13:24:36 21° 267° (W) 13:27:52 145.980
ESTCUBE 1 26 Sep 13:23:30 13:27:51 48° 290° (WNW) 13:32:09 437.505/2401.250
LO-87 26 Sep 13:31:52 13:34:33 20° 295° (WNW) 13:37:14 145.935 - 145.965
VELOX 1 26 Sep 13:37:56 13:42:13 49° 100° (E) 13:46:29 145.980
YUBILEINY 26 Sep 13:38:48 13:47:19 57° 286° (WNW) 13:55:53 435.215
POLYITAN 1 26 Sep 13:42:19 13:43:45 11° 273° (W) 13:45:10 437.675
BUGSAT 1 26 Sep 13:42:44 13:46:33 40° 262° (W) 13:50:27 437.445
EO-79 26 Sep 13:46:21 13:47:08 10° 273° (W) 13:47:55 145.935-145.965
ITAMSAT 1 26 Sep 14:00:48 14:03:13 13° 53° (NE) 14:05:39 435.822/435.867
50 SAT 26 Sep 14:15:15 14:18:25 40° 99° (E) 14:21:33 437.505
NO-84 26 Sep 14:20:31 14:24:09 46° 336° (NNW) 14:27:29 435.350 FM
SO-50 26 Sep 14:21:34 14:26:03 82° 127° (SE) 14:30:36 436.795
UKube-1 26 Sep 14:22:42 14:26:20 26° 95° (E) 14:29:58 .
Oscar 19 26 Sep 14:25:05 14:29:58 41° 262° (W) 14:34:53 437.125/150
AO-7 26 Sep 14:33:58 14:41:50 49° 59° (ENE) 14:49:42 .
Gurwin Techsat 1B 26 Sep 14:36:09 14:41:16 48° 261° (W) 14:46:25 435.225
DX 1 26 Sep 14:36:11 14:40:27 54° 101° (E) 14:44:42 434.975-435.025
SPROUT 26 Sep 14:48:38 14:52:09 25° 295° (WNW) 14:55:39 437.525
PCSat 26 Sep 14:57:19 15:02:44 79° 122° (ESE) 15:08:11 145.827
RS-15 26 Sep 15:14:30 15:25:57 54° 246° (WSW) 15:36:47 29.354- 29.394
VELOX 1 26 Sep 15:15:05 15:18:21 21° 298° (WNW) 15:21:37 145.980
ITAMSAT 1 26 Sep 15:36:40 15:41:49 74° 72° (ENE) 15:47:01 435.822/435.867
YUBILEINY 26 Sep 15:42:07 15:46:30 14° 312° (NW) 15:50:55 435.215
50 SAT 26 Sep 15:48:39 15:50:35 15° 297° (WNW) 15:52:30 437.505
ITUPSAT 1 26 Sep 15:55:40 15:59:59 32° 96° (E) 16:04:16 437.325
UKube-1 26 Sep 15:58:29 16:02:25 35° 293° (WNW) 16:06:20 .
NO-84 26 Sep 15:59:08 16:02:06 24° 356° (N) 16:04:52 435.350 FM
SO-50 26 Sep 16:03:33 16:07:04 22° 328° (NNW) 16:10:37 436.795
DOVE 4 26 Sep 16:06:40 16:08:54 14° 60° (ENE) 16:11:06 437.250
DX 1 26 Sep 16:13:12 16:16:16 19° 299° (WNW) 16:19:20 434.975-435.025
AO-7 26 Sep 16:26:41 16:34:38 47° 260° (W) 16:42:37 .
BEESAT 26 Sep 16:29:45 16:34:33 66° 102° (ESE) 16:39:18 436.000
MOZHAYETS 4 26 Sep 16:31:23 16:36:03 73° 103° (ESE) 16:40:40
PCSat 26 Sep 16:42:16 16:46:44 25° 323° (NW) 16:51:14 145.827
LilacSat-2 26 Sep 17:02:06 17:04:14 14° 61° (ENE) 17:06:22 437.200
CUBESAT XI-V 26 Sep 17:06:55 17:11:15 38° 97° (E) 17:15:33 437.345
KAITUO 1B 26 Sep 17:08:03 17:09:24 12° 60° (ENE) 17:10:45 145.475/437.950
ITAMSAT 1 26 Sep 17:18:34 17:21:51 17° 271° (W) 17:25:10 435.822/435.867
RS-15 26 Sep 17:31:48 17:35:10 12° 270° (W) 17:38:30 29.354- 29.394
ITUPSAT 1 26 Sep 17:33:26 17:37:50 36° 294° (WNW) 17:42:11 437.325
NO-84 26 Sep 17:37:01 17:40:07 35° 18° (NNE) 17:43:00 435.350 FM
DOVE 4 26 Sep 17:41:49 17:46:07 71° 257° (WSW) 17:50:19 437.250
XW-2D 26 Sep 17:43:56 17:47:28 35° 69° (ENE) 17:51:00 145.860 - 145.880
SO-50 26 Sep 17:48:28 17:49:13 10° 352° (N) 17:49:58 436.795
CUTE-I 26 Sep 17:49:28 17:54:27 43° 67° (ENE) 17:59:27 437.470
XW-2F 26 Sep 17:53:26 17:57:03 40° 71° (ENE) 18:00:40 145.980 - 146.000
XW-2B 26 Sep 17:56:13 17:59:54 46° 71° (ENE) 18:03:37 145.730 - 145.750
HO-68 26 Sep 18:00:50 18:07:00 33° 57° (ENE) 18:13:12 435.675
KKS-1 26 Sep 18:03:13 18:07:33 48° 100° (E) 18:11:51 437.445
NUDT-PHONESAT 26 Sep 18:05:06 18:08:39 42° 71° (ENE) 18:12:14 437.300
CUBEBUG 2 26 Sep 18:07:00 18:07:50 10° 55° (NE) 18:08:41 437.445
BEESAT 26 Sep 18:08:31 18:11:51 19° 301° (WNW) 18:15:11 436.000
MOZHAYETS 4 26 Sep 18:09:45 18:12:40 17° 301° (WNW) 18:15:33
XW-2C 26 Sep 18:17:36 18:21:27 82° 76° (ENE) 18:25:19 145.795 - 145.815
STARS 26 Sep 18:17:53 18:21:46 29° 96° (E) 18:25:37 437.465
PCSat 26 Sep 18:30:38 18:32:10 11° 348° (NNW) 18:33:42 145.827
LilacSat-2 26 Sep 18:34:12 18:38:02 61° 259° (WSW) 18:41:55 437.200
CUTE 1.7 + AOD 2 26 Sep 18:34:18 18:37:59 29° 66° (ENE) 18:41:41 437.475
KAITUO 1B 26 Sep 18:39:02 18:42:50 76° 259° (WSW) 18:46:39 145.475/437.950
Tancredo 1 26 Sep 18:43:37 18:45:47 22° 143° (SE) 18:47:56 437.200
CUBESAT XI-V 26 Sep 18:44:34 18:48:29 28° 296° (WNW) 18:52:22 437.345
BEESAT 3 26 Sep 18:53:33 18:56:47 24° 115° (ESE) 19:00:04 437.485
XW-2A 26 Sep 18:58:56 19:01:24 19° 65° (ENE) 19:03:54 145.665 - 145.685
BEESAT 2 26 Sep 19:11:08 19:12:43 12° 109° (ESE) 19:14:17 435.950
NO-84 26 Sep 19:14:32 19:17:33 44° 220° (SW) 19:20:22 435.350 FM
XW-2D 26 Sep 19:18:46 19:21:44 21° 267° (W) 19:24:44 145.860 - 145.880
XW-2F 26 Sep 19:28:38 19:31:20 18° 268° (W) 19:34:03 145.980 - 146.000
SO-50 26 Sep 19:29:41 19:31:44 13° 18° (NNE) 19:33:47 436.795
CUTE-I 26 Sep 19:29:59 19:34:38 30° 265° (W) 19:39:18 437.470
XW-2B 26 Sep 19:31:50 19:34:19 16° 269° (W) 19:36:50 145.730 - 145.750
SEEDS 26 Sep 19:34:17 19:38:30 73° 75° (ENE) 19:42:45 437.485
UWE-3 26 Sep 19:38:50 19:42:59 44° 70° (ENE) 19:47:17 435.000/436.395/437.385
CUBEBUG 2 26 Sep 19:39:17 19:43:35 73° 74° (ENE) 19:48:04 437.445
NUDT-PHONESAT 26 Sep 19:40:12 19:42:43 17° 269° (W) 19:45:15 437.300
KKS-1 26 Sep 19:40:23 19:43:48 22° 298° (WNW) 19:47:13 437.445
nSIGHT-1 26 Sep 19:40:45 19:42:55 17° 138° (SE) 19:45:07 .
AAUSAT CUBESAT 2 26 Sep 19:46:24 19:50:21 45° 71° (ENE) 19:54:20 437.432
HO-68 26 Sep 19:47:16 19:54:20 63° 257° (WSW) 20:01:28 435.675
AO-85 26 Sep 19:48:01 19:51:16 26° 117° (ESE) 19:54:35 145.980
STARS 26 Sep 19:54:09 19:58:06 33° 294° (WNW) 20:02:03 437.465
STRAND 1 26 Sep 20:01:08 20:05:44 31° 95° (E) 20:10:18 437.568
Oscar 11 26 Sep 20:08:28 20:12:22 33° 67° (ENE) 20:16:17 .
CUTE 1.7 + AOD 2 26 Sep 20:09:53 20:13:44 32° 264° (W) 20:17:36 437.475
AO-73 26 Sep 20:13:09 20:17:23 50° 71° (ENE) 20:21:46 145.935
PCSat 26 Sep 20:16:10 20:18:13 12° 16° (NNE) 20:20:15 145.827
Tancredo 1 26 Sep 20:17:18 20:19:58 65° 340° (NNW) 20:22:38 437.200
ZACube-1 26 Sep 20:18:07 20:22:27 62° 73° (ENE) 20:26:56 437.345
BEESAT 3 26 Sep 20:30:15 20:34:08 45° 314° (NW) 20:38:02 437.485
XW-2A 26 Sep 20:30:49 20:33:56 32° 263° (W) 20:37:05 145.665 - 145.685
DELFI C3 26 Sep 20:43:06 20:45:46 18° 63° (ENE) 20:48:27 145.870
ISS 26 Sep 20:43:22 20:46:31 47° 149° (SSE) 20:49:42 437.550
BEESAT 2 26 Sep 20:45:46 20:49:48 85° 307° (NW) 20:53:54 435.950
FO-29 26 Sep 20:48:55 20:51:45 14° 88° (E) 20:54:41 435.910
Max Valier Satellite 26 Sep 21:01:08 21:03:50 19° 64° (ENE) 21:06:33 145.860
SO-50 26 Sep 21:09:16 21:13:30 35° 41° (NE) 21:17:45 436.795
SEEDS 26 Sep 21:12:50 21:14:41 13° 272° (W) 21:16:34 437.485
nSIGHT-1 26 Sep 21:15:37 21:18:52 85° 151° (SSE) 21:22:06 .
UWE-3 26 Sep 21:16:16 21:19:40 22° 269° (W) 21:23:09 435.000/436.395/437.385
CUBEBUG 2 26 Sep 21:18:42 21:20:47 13° 273° (W) 21:22:54 437.445
AAUSAT CUBESAT 2 26 Sep 21:23:02 21:26:02 19° 268° (W) 21:29:02 437.432
AO-85 26 Sep 21:27:49 21:31:29 38° 317° (NW) 21:35:17 145.980
STRAND 1 26 Sep 21:40:11 21:44:59 40° 294° (WNW) 21:49:45 437.568
HO-68 26 Sep 21:41:06 21:43:32 12° 278° (W) 21:45:58 435.675
Oscar 11 26 Sep 21:44:43 21:48:31 29° 265° (W) 21:52:19 .
AO-73 26 Sep 21:50:42 21:53:55 20° 269° (W) 21:57:13 145.935
Tancredo 1 26 Sep 21:52:06 21:54:36 35° 0° (N) 21:57:08 437.200
EO-88 26 Sep 21:52:29 21:56:04 52° 73° (ENE) 21:59:40 145.990 - 145.960
